Location: Caltech
(34.1382°N, 118.1253°W)
Time: 17:19:04
(UTC-07:00)

Gbstr 26 Del rocket - Visible Passes

Search period start: 29 May 2015 00:00
Search period end: 08 June 2015 00:00
Orbit: 493 x 1271 km, 51.8° (Epoch: 28 May)

Date Brightness Start Highest point End Pass type
(mag) Time Alt. Az. Time Alt. Az. Time Alt. Az.
29 May 4.8 20:50:54 10° NW 20:57:34 55° SW 21:04:50 12° SSE visible
29 May 6.6 22:43:10 10° WSW 22:44:39 10° WSW 22:45:29 10° SW visible
30 May 5.1 20:47:34 10° WNW 20:54:01 44° SW 21:01:21 10° SSE visible
31 May 5.5 20:44:18 10° WNW 20:50:27 35° SW 20:57:20 10° S visible
01 Jun 5.8 20:41:09 10° WNW 20:46:53 28° SW 20:53:08 10° S visible
02 Jun 6.1 20:38:11 10° W 20:43:20 22° SW 20:48:43 10° S visible
03 Jun 6.5 20:35:30 10° W 20:39:45 16° SW 20:43:58 10° SSW visible
04 Jun 6.7 20:33:29 10° WSW 20:36:11 12° SW 20:38:29 10° SW visible
